• In Czech Republic
  • List of Countries
  • For 7 days
  • Water Temperature
  • Satellite Maps
  • Weather Map
  • Weather Widgets
  • user-avatar
    Login

    Hourly Weather Korçe

    Today, 18 October, Thursday

    Time Temperature Precipitation Wind Pressure Humidity
    00:00 +11°C° 0 mm 1 mps 668 mmHg 69%
    01:00 +11°C° 0 mm 1 mps 667 mmHg 70%
    02:00 +11°C° 0 mm 1 mps 667 mmHg 71%
    03:00 +11°C° 0 mm 1 mps 667 mmHg 72%
    04:00 +10°C° 0 mm 1 mps 667 mmHg 73%
    05:00 +11°C° 0 mm 1 mps 667 mmHg 72%
    06:00 +11°C° 0 mm 1 mps 667 mmHg 71%
    07:00 +12°C° 0 mm 1 mps 667 mmHg 70%
    08:00 +14°C° 0 mm 1 mps 668 mmHg 63%
    09:00 +16°C° 0 mm 1 mps 668 mmHg 55%
    10:00 +19°C° 0 mm 1 mps 669 mmHg 47%
    11:00 +20°C° 0 mm 1 mps 669 mmHg 45%
    12:00 +21°C° 0 mm 1 mps 669 mmHg 43%
    13:00 +21°C° 0 mm 1 mps 669 mmHg 41%
    14:00 +21°C° 0 mm 1 mps 668 mmHg 44%
    15:00 +20°C° 0 mm 1 mps 668 mmHg 47%
    16:00 +19°C° 0 mm 1 mps 667 mmHg 51%
    17:00 +16°C° 0 mm 1 mps 667 mmHg 57%
    18:00 +15°C° 0 mm 1 mps 667 mmHg 63%
    19:00 +13°C° 0 mm 1 mps 667 mmHg 69%
    20:00 +13°C° 0 mm 1 mps 667 mmHg 70%
    21:00 +12°C° 0 mm 1 mps 667 mmHg 72%
    22:00 +12°C° 0 mm 1 mps 667 mmHg 73%
    23:00 +12°C° 0 mm 1 mps 667 mmHg 73%

    Tomorrow, 19 October, Friday

    Time Temperature Precipitation Wind Pressure Humidity
    00:00 +12°C° 0 mm 1 mps 667 mmHg 74%
    01:00 +11°C° 0 mm 1 mps 667 mmHg 74%
    02:00 +11°C° 0 mm 1 mps 667 mmHg 74%
    03:00 +11°C° 0 mm 1 mps 667 mmHg 75%
    04:00 +11°C° 0 mm 1 mps 666 mmHg 75%
    05:00 +11°C° 0 mm 1 mps 667 mmHg 74%
    06:00 +12°C° 0 mm 1 mps 667 mmHg 72%
    07:00 +12°C° 0 mm 1 mps 667 mmHg 71%
    08:00 +14°C° 0 mm 1 mps 668 mmHg 62%
    09:00 +18°C° 0 mm 1 mps 669 mmHg 54%
    10:00 +20°C° 0 mm 1 mps 669 mmHg 46%
    11:00 +21°C° 0 mm 1 mps 669 mmHg 44%
    12:00 +21°C° 0 mm 1 mps 669 mmHg 41%
    13:00 +21°C° 0 mm 2 mps 669 mmHg 39%
    14:00 +20°C° 0 mm 2 mps 669 mmHg 42%
    15:00 +19°C° 0 mm 2 mps 669 mmHg 45%
    16:00 +18°C° 0 mm 2 mps 668 mmHg 48%
    17:00 +18°C° 0 mm 1 mps 668 mmHg 53%
    18:00 +15°C° 0 mm 1 mps 668 mmHg 58%
    19:00 +13°C° 0 mm 1 mps 668 mmHg 63%
    20:00 +13°C° 0 mm 1 mps 668 mmHg 64%
    21:00 +13°C° 0 mm 1 mps 668 mmHg 65%
    22:00 +12°C° 0 mm 1 mps 668 mmHg 65%
    23:00 +12°C° 0 mm 1 mps 668 mmHg 66%

    Day after tomorrow, 20 October, Saturday

    Time Temperature Precipitation Wind Pressure Humidity
    00:00 +12°C° 0 mm 1 mps 668 mmHg 67%
    01:00 +11°C° 0 mm 1 mps 668 mmHg 67%
    02:00 +11°C° 0 mm 1 mps 668 mmHg 69%
    03:00 +11°C° 0 mm 1 mps 668 mmHg 70%
    04:00 +10°C° 0 mm 1 mps 668 mmHg 71%
    05:00 +11°C° 0 mm 1 mps 668 mmHg 70%
    06:00 +11°C° 0 mm 1 mps 668 mmHg 70%
    07:00 +12°C° 0 mm 1 mps 669 mmHg 69%
    08:00 +14°C° 0 mm 1 mps 669 mmHg 61%
    09:00 +16°C° 0 mm 1 mps 670 mmHg 54%
    10:00 +19°C° 0 mm 1 mps 671 mmHg 47%
    11:00 +18°C° 0.2 mm 2 mps 670 mmHg 45%
    12:00 +18°C° 0.2 mm 2 mps 670 mmHg 44%
    13:00 +19°C° 0.2 mm 3 mps 670 mmHg 43%
    14:00 +18°C° 0.1 mm 3 mps 670 mmHg 46%
    15:00 +17°C° 0.1 mm 2 mps 670 mmHg 48%
    16:00 +16°C° 0.1 mm 2 mps 669 mmHg 51%
    17:00 +15°C° 0 mm 2 mps 669 mmHg 55%
    18:00 +13°C° 0 mm 2 mps 669 mmHg 59%
    19:00 +12°C° 0 mm 2 mps 669 mmHg 63%
    20:00 +10°C° 0 mm 2 mps 669 mmHg 64%
    21:00 +10°C° 0 mm 2 mps 669 mmHg 66%
    22:00 +9°C° 0 mm 2 mps 669 mmHg 67%
    23:00 +9°C° 0 mm 2 mps 669 mmHg 69%

    21 October, Sunday

    Time Temperature Precipitation Wind Pressure Humidity
    00:00 +8°C° 0 mm 2 mps 669 mmHg 71%
    01:00 +8°C° 0 mm 2 mps 669 mmHg 73%
    02:00 +8°C° 0 mm 2 mps 669 mmHg 75%
    03:00 +7°C° 0 mm 2 mps 669 mmHg 76%
    04:00 +7°C° 0 mm 2 mps 668 mmHg 78%
    05:00 +7°C° 0 mm 2 mps 669 mmHg 77%
    06:00 +8°C° 0 mm 2 mps 669 mmHg 76%
    07:00 +8°C° 0 mm 2 mps 669 mmHg 75%
    08:00 +10°C° 0 mm 2 mps 670 mmHg 66%
    09:00 +13°C° 0 mm 2 mps 670 mmHg 57%
    10:00 +15°C° 0 mm 2 mps 671 mmHg 48%
    11:00 +16°C° 0 mm 2 mps 671 mmHg 46%
    12:00 +17°C° 0 mm 2 mps 671 mmHg 43%
    13:00 +17°C° 0 mm 2 mps 670 mmHg 40%
    14:00 +17°C° 0 mm 2 mps 670 mmHg 43%
    15:00 +16°C° 0 mm 2 mps 670 mmHg 46%
    16:00 +16°C° 0 mm 2 mps 670 mmHg 49%
    17:00 +14°C° 0 mm 2 mps 669 mmHg 54%
    18:00 +13°C° 0 mm 1 mps 669 mmHg 59%
    19:00 +11°C° 0 mm 1 mps 669 mmHg 64%
    20:00 +11°C° 0 mm 1 mps 669 mmHg 67%
    21:00 +10°C° 0 mm 1 mps 669 mmHg 69%
    22:00 +10°C° 0 mm 1 mps 669 mmHg 72%
    23:00 +9°C° 0 mm 1 mps 668 mmHg 74%

    22 October, Monday

    Time Temperature Precipitation Wind Pressure Humidity
    00:00 +9°C° 0 mm 1 mps 668 mmHg 75%
    01:00 +9°C° 0 mm 1 mps 668 mmHg 77%
    02:00 +8°C° 0 mm 1 mps 667 mmHg 78%
    03:00 +8°C° 0 mm 1 mps 667 mmHg 79%
    04:00 +7°C° 0 mm 1 mps 666 mmHg 80%
    05:00 +8°C° 0 mm 1 mps 666 mmHg 79%
    06:00 +8°C° 0 mm 1 mps 666 mmHg 77%
    07:00 +8°C° 0 mm 1 mps 666 mmHg 76%
    08:00 +9°C° 0 mm 2 mps 667 mmHg 69%
    09:00 +10°C° 0 mm 2 mps 667 mmHg 62%
    10:00 +13°C° 0 mm 2 mps 667 mmHg 55%
    11:00 +13°C° 0 mm 2 mps 666 mmHg 54%
    12:00 +13°C° 0 mm 2 mps 666 mmHg 54%
    13:00 +13°C° 0 mm 2 mps 665 mmHg 53%
    14:00 +12°C° 0.3 mm 2 mps 665 mmHg 55%
    15:00 +10°C° 0.3 mm 2 mps 665 mmHg 58%
    16:00 +10°C° 0.3 mm 2 mps 664 mmHg 60%
    17:00 +9°C° 0.4 mm 3 mps 664 mmHg 62%
    18:00 +8°C° 0.4 mm 3 mps 664 mmHg 64%
    19:00 +5°C° 0.4 mm 3 mps 664 mmHg 65%
    20:00 +5°C° 0.3 mm 3 mps 664 mmHg 66%
    21:00 +4°C° 0.3 mm 3 mps 664 mmHg 67%
    22:00 +3°C° 0.3 mm 3 mps 664 mmHg 68%
    23:00 +3°C° 0.2 mm 3 mps 663 mmHg 70%

    23 October, Tuesday

    Time Temperature Precipitation Wind Pressure Humidity
    00:00 +3°C° 0.2 mm 3 mps 663 mmHg 72%
    01:00 +2°C° 0.2 mm 3 mps 663 mmHg 74%
    02:00 +2°C° 0.1 mm 3 mps 663 mmHg 76%
    03:00 +2°C° 0.1 mm 3 mps 663 mmHg 77%
    04:00 +2°C° 0.1 mm 3 mps 663 mmHg 78%
    05:00 +2°C° 0 mm 3 mps 663 mmHg 78%
    06:00 +2°C° 0 mm 3 mps 663 mmHg 78%
    07:00 +2°C° 0 mm 3 mps 663 mmHg 78%
    08:00 +3°C° 0 mm 3 mps 664 mmHg 70%
    09:00 +5°C° 0 mm 3 mps 664 mmHg 62%
    10:00 +8°C° 0 mm 3 mps 664 mmHg 53%
    11:00 +9°C° 0 mm 2 mps 664 mmHg 50%
    12:00 +10°C° 0 mm 2 mps 664 mmHg 47%
    13:00 +12°C° 0 mm 2 mps 664 mmHg 43%
    14:00 +12°C° 0 mm 2 mps 663 mmHg 46%
    15:00 +12°C° 0 mm 2 mps 663 mmHg 48%
    16:00 +10°C° 0 mm 2 mps 662 mmHg 50%
    17:00 +9°C° 0 mm 2 mps 662 mmHg 55%
    18:00 +8°C° 0 mm 1 mps 662 mmHg 59%
    19:00 +7°C° 0 mm 1 mps 661 mmHg 63%
    20:00 +6°C° 0 mm 1 mps 661 mmHg 64%
    21:00 +6°C° 0 mm 1 mps 661 mmHg 66%
    22:00 +6°C° 0 mm 1 mps 661 mmHg 67%
    23:00 +5°C° 0 mm 1 mps 661 mmHg 67%
    Show more